Auburn, IN

6:06 PM EDT on May 20, 2018 (GMT -0400)
Auburn

Weather History for KGWB - October, 2012

Change the Weather History Date:

Thursday, October 11, 2012

  Actual Average (KFWA) Record (KFWA)
Temperature  
Mean Temperature 46 °F -  
Max Temperature 60 °F 63 °F 88 °F (1928)
Min Temperature 32 °F 42 °F 24 °F (1964)
Degree Days  
Heating Degree Days 19    
Moisture  
Dew Point 30 °F    
Average Humidity 56    
Maximum Humidity 93    
Minimum Humidity 27    
Precipitation  
Precipitation 0.00 in - - ()
Sea Level Pressure  
Sea Level Pressure 30.17 in    
Wind  
Wind Speed 6 mph (SW)    
Max Wind Speed 17 mph    
Max Gust Speed 25 mph    
Visibility 10 miles    
Events      
Averages and records for this station are not official NWS values.
T = Trace of Precipitation, MM = Missing Value Source: NWS Daily Summary

Daily Weather History Graph

Daily Weather History Graph

Search for Another Location

Airport or City:

Astronomy

Oct. 11, 2012 Rise Set
Actual Time 7:48 AM EDT 7:04 PM EDT
Civil Twilight 7:20 AM EDT 7:32 PM EDT
Nautical Twilight 6:48 AM EDT 8:04 PM EDT
Astronomical Twilight 6:16 AM EDT 8:36 PM EDT
Moon 3:23 AM EDT (10/11) 4:43 PM EDT (10/11)
Length of Visible Light 12h 12m
Length of Day
11h 16m
Waning Crescent, 18% of the Moon is Illuminated
Oct 11
Waning Crescent
Oct 15
New
Oct 21
First Quarter
Oct 29
Full
Nov 6
Last Quarter

Hourly Weather History & Observations

Time (EDT) Temp. Windchill Dew Point Humidity Pressure Visibility Wind Dir Wind Speed Gust Speed Precip Events Conditions
12:15 AM 35.6 °F 31.7 °F 28.4 °F 75% 30.20 in 10.0 mi SSW 4.6 mph - N/A   Clear
12:35 AM 33.8 °F 30.8 °F 28.4 °F 81% 30.20 in 10.0 mi SSW 3.5 mph - N/A   Clear
12:55 AM 33.8 °F 30.8 °F 28.4 °F 81% 30.20 in 10.0 mi SSW 3.5 mph - N/A   Clear
1:15 AM 32.0 °F - 28.4 °F 87% 30.20 in 10.0 mi Calm Calm - N/A   Clear
1:35 AM 32.0 °F - 28.4 °F 87% 30.20 in 10.0 mi Calm Calm - N/A   Clear
1:55 AM 32.0 °F - 28.4 °F 87% 30.19 in 10.0 mi Calm Calm - N/A   Clear
2:15 AM 32.0 °F 28.7 °F 30.2 °F 93% 30.20 in 10.0 mi SSW 3.5 mph - N/A   Clear
3:15 AM 35.6 °F 31.7 °F 28.4 °F 75% 30.21 in 10.0 mi SSW 4.6 mph - N/A   Clear
3:35 AM 35.6 °F 32.8 °F 28.4 °F 75% 30.21 in 10.0 mi SW 3.5 mph - N/A   Clear
3:55 AM 33.8 °F 28.6 °F 28.4 °F 81% 30.20 in 10.0 mi SSW 5.8 mph - N/A   Clear
4:15 AM 33.8 °F 29.6 °F 28.4 °F 81% 30.20 in 10.0 mi SSW 4.6 mph - N/A   Clear
4:35 AM 35.6 °F 31.7 °F 28.4 °F 75% 30.20 in 10.0 mi SSW 4.6 mph - N/A   Clear
4:55 AM 35.6 °F 31.7 °F 28.4 °F 75% 30.21 in 10.0 mi SSW 4.6 mph - N/A   Clear
5:15 AM 33.8 °F 29.6 °F 28.4 °F 81% 30.21 in 10.0 mi SSW 4.6 mph - N/A   Clear
5:35 AM 33.8 °F 30.8 °F 30.2 °F 87% 30.21 in 10.0 mi SSW 3.5 mph - N/A   Clear
5:55 AM 33.8 °F 29.6 °F 30.2 °F 87% 30.21 in 10.0 mi South 4.6 mph - N/A   Clear
6:35 AM 33.8 °F 30.8 °F 30.2 °F 87% 30.22 in 10.0 mi South 3.5 mph - N/A   Clear
6:55 AM 33.8 °F 29.6 °F 30.2 °F 87% 30.22 in 10.0 mi SSW 4.6 mph - N/A   Clear
7:15 AM 33.8 °F 29.6 °F 30.2 °F 87% 30.21 in 10.0 mi SSW 4.6 mph - N/A   Clear
7:35 AM 33.8 °F 29.6 °F 30.2 °F 87% 30.21 in 10.0 mi SSW 4.6 mph - N/A   Clear
7:55 AM 33.8 °F 30.8 °F 30.2 °F 87% 30.21 in 10.0 mi SSW 3.5 mph - N/A   Clear
8:35 AM 35.6 °F 32.8 °F 30.2 °F 81% 30.23 in 10.0 mi SSW 3.5 mph - N/A   Clear
8:55 AM 37.4 °F 33.8 °F 30.2 °F 75% 30.23 in 10.0 mi SSW 4.6 mph - N/A   Clear
9:15 AM 41.0 °F 36.4 °F 30.2 °F 65% 30.23 in 10.0 mi SW 6.9 mph - N/A   Clear
9:35 AM 42.8 °F 38.0 °F 32.0 °F 66% 30.22 in 10.0 mi SW 8.1 mph - N/A   Clear
9:55 AM 44.6 °F 39.2 °F 32.0 °F 61% 30.21 in 10.0 mi SSW 10.4 mph - N/A   Clear
10:15 AM 46.4 °F 41.5 °F 32.0 °F 57% 30.21 in 10.0 mi SW 10.4 mph 17.3 mph N/A   Clear
10:35 AM 48.2 °F - 32.0 °F 54% 30.21 in 10.0 mi SW 10.4 mph 18.4 mph N/A   Clear
10:55 AM 50.0 °F - 32.0 °F 50% 30.21 in 10.0 mi SW 12.7 mph 19.6 mph N/A   Clear
11:15 AM 51.8 °F - 32.0 °F 47% 30.21 in 10.0 mi SW 10.4 mph 21.9 mph N/A   Clear
11:35 AM 51.8 °F - 30.2 °F 44% 30.21 in 10.0 mi WSW 13.8 mph 21.9 mph N/A   Clear
11:55 AM 53.6 °F - 30.2 °F 41% 30.21 in 10.0 mi SW 15.0 mph 23.0 mph N/A   Clear
12:15 PM 53.6 °F - 30.2 °F 41% 30.19 in 10.0 mi SW 13.8 mph 24.2 mph N/A   Clear
12:35 PM 55.4 °F - 32.0 °F 41% 30.18 in 10.0 mi SW 12.7 mph 18.4 mph N/A   Clear
1:15 PM 57.2 °F - 30.2 °F 36% 30.17 in 10.0 mi SW 13.8 mph 25.3 mph N/A   Clear
1:35 PM 59.0 °F - 30.2 °F 34% 30.17 in 10.0 mi SW 13.8 mph 20.7 mph N/A   Clear
1:55 PM 59.0 °F - 28.4 °F 31% 30.13 in 10.0 mi SW 15.0 mph 23.0 mph N/A   Clear
2:15 PM 59.0 °F - 28.4 °F 31% 30.13 in 10.0 mi SW 10.4 mph 20.7 mph N/A   Clear
2:35 PM 59.0 °F - 28.4 °F 31% 30.13 in 10.0 mi SW 13.8 mph 23.0 mph N/A   Clear
2:55 PM 59.0 °F - 28.4 °F 31% 30.13 in 10.0 mi WSW 17.3 mph 24.2 mph N/A   Clear
3:15 PM 60.8 °F - 28.4 °F 29% 30.12 in 10.0 mi SW 15.0 mph 24.2 mph N/A   Clear
3:35 PM 60.8 °F - 28.4 °F 29% 30.11 in 10.0 mi WSW 15.0 mph 25.3 mph N/A   Clear
3:55 PM 60.8 °F - 26.6 °F 27% 30.11 in 10.0 mi SW 13.8 mph 23.0 mph N/A   Clear
4:15 PM 60.8 °F - 26.6 °F 27% 30.10 in 10.0 mi SW 13.8 mph 20.7 mph N/A   Clear
4:35 PM 60.8 °F - 28.4 °F 29% 30.10 in 10.0 mi SW 9.2 mph 25.3 mph N/A   Clear
4:55 PM 60.8 °F - 28.4 °F 29% 30.10 in 10.0 mi SW 11.5 mph 19.6 mph N/A   Clear
5:15 PM 60.8 °F - 28.4 °F 29% 30.10 in 10.0 mi SW 12.7 mph 21.9 mph N/A   Clear
5:35 PM 59.0 °F - 30.2 °F 34% 30.10 in 10.0 mi WSW 10.4 mph 19.6 mph N/A   Clear
5:55 PM 59.0 °F - 28.4 °F 31% 30.10 in 10.0 mi SW 10.4 mph 18.4 mph N/A   Clear
6:15 PM 59.0 °F - 28.4 °F 31% 30.10 in 10.0 mi SW 8.1 mph 16.1 mph N/A   Clear
6:35 PM 55.4 °F - 30.2 °F 38% 30.10 in 10.0 mi SW 9.2 mph - N/A   Clear
7:35 PM 55.4 °F - 32.0 °F 41% 30.10 in 10.0 mi SW 5.8 mph - N/A   Clear
7:55 PM 53.6 °F - 32.0 °F 44% 30.11 in 10.0 mi SW 5.8 mph - N/A   Clear
8:15 PM 55.4 °F - 32.0 °F 41% 30.11 in 10.0 mi SW 4.6 mph - N/A   Clear
8:35 PM 53.6 °F - 32.0 °F 44% 30.13 in 10.0 mi SW 4.6 mph - N/A   Clear
9:15 PM 53.6 °F - 32.0 °F 44% 30.12 in 10.0 mi SW 5.8 mph - N/A   Clear
9:35 PM 53.6 °F - 32.0 °F 44% 30.13 in 10.0 mi SW 4.6 mph - N/A   Clear
9:55 PM 53.6 °F - 32.0 °F 44% 30.13 in 10.0 mi SW 4.6 mph - N/A   Clear
10:15 PM 53.6 °F - 32.0 °F 44% 30.13 in 10.0 mi SW 5.8 mph - N/A   Clear
11:15 PM 51.8 °F - 33.8 °F 50% 30.13 in 10.0 mi SW 5.8 mph - N/A   Clear
11:35 PM 53.6 °F - 33.8 °F 47% 30.15 in 10.0 mi WSW 8.1 mph - N/A   Clear